Location: Bluff Heights
(33.7692°N, 118.1592°W)
Time: 07:38:25
(UTC+00:00)

Cosmos 2026 Rocket - Pass Details

Date: 29 October 2020
Orbit: 938 x 1002 km, 82.9° (Epoch: 28 November)

Event Time Altitude Azimuth Distance (km) Brightness Sun altitude
Rises 12:56:47 0° 195° (SSW) 3,699 6.9 -15.7°
Reaches altitude 10° 12:59:20 10° 199° (SSW) 2,758 6.2 -15.2°
Maximum altitude 13:05:35 59° 278° (W) 1,148 4.1 -13.9°
Drops below altitude 10° 13:11:53 10° 358° (N) 2,775 6.3 -12.6°
Sets 13:14:28 0° 2° (N) 3,724 7.0 -12.0°
